This is the latest recevied weather packets stored in our database for station/object DL1EEM-L4. If no packets are shown the sender has not sent any weather packets the latest 10 day(s).
| Time | Temp. | Humidity | Pressure | Rain* | Wind** | Luminosity | Snow |
|---|---|---|---|---|---|---|---|
| 1778047252 | 10.56° C | 59% | 1006 hPa | - | - | - | - |
| 1778046352 | 10.56° C | 61% | 1006.2 hPa | - | - | - | - |
| 1778044549 | 10° C | 63% | 1006.2 hPa | - | - | - | - |
| 1778043652 | 9.44° C | 65% | 1006.2 hPa | - | - | - | - |
| 1778000018 | 13.89° C | 61% | 1007.8 hPa | - | - | - | - |
| 1777999118 | 13.89° C | 60% | 1007.9 hPa | - | - | - | - |
| 1777998218 | 13.89° C | 60% | 1007.9 hPa | - | - | - | - |
| 1777997318 | 14.44° C | 59% | 1007.9 hPa | - | - | - | - |
| 1777996418 | 14.44° C | 58% | 1008 hPa | - | - | - | - |
| 1777995517 | 14.44° C | 58% | 1008.1 hPa | - | - | - | - |
| 1777991093 | 15° C | 53% | 1008.4 hPa | - | - | - | - |
| 1777990184 | 15° C | 53% | 1008.6 hPa | - | - | - | - |
| 1777989291 | 15.56° C | 53% | 1008.7 hPa | - | - | - | - |
| 1777986932 | 15.56° C | 53% | 1008.8 hPa | - | - | - | - |
| 1777986050 | 16.11° C | 52% | 1008.9 hPa | - | - | - | - |
| 1777985132 | 15.56° C | 53% | 1009 hPa | - | - | - | - |
| 1777982458 | 16.11° C | 50% | 1009 hPa | - | - | - | - |
| 1777981558 | 15.56° C | 50% | 1009.2 hPa | - | - | - | - |
| 1777980658 | 15.56° C | 51% | 1009.3 hPa | - | - | - | - |
| 1777979758 | 15° C | 51% | 1009.4 hPa | - | - | - | - |
| 1777978858 | 15° C | 49% | 1009.4 hPa | - | - | - | - |
| 1777977958 | 15° C | 51% | 1009.5 hPa | - | - | - | - |
| 1777977058 | 15° C | 50% | 1009.5 hPa | - | - | - | - |
| 1777976158 | 14.44° C | 51% | 1009.5 hPa | - | - | - | - |
| 1777975258 | 14.44° C | 51% | 1009.6 hPa | - | - | - | - |
* Rain since midnight (hover to see other rain measurements)
** Current wind speed in m/s (hover to see current wind gust speed)